Birmingham, AL

12:06 PM CDT on April 27, 2017 (GMT -0500)
Birmingham International

Weather History for KBHM - December, 2012

Change the Weather History Date:

Thursday, December 20, 2012

  Actual Average Record
Temperature  
Mean Temperature 51 °F 45 °F  
Max Temperature 62 °F 55 °F 74 °F (1978)
Min Temperature 40 °F 36 °F 5 °F (1901)
Degree Days  
Heating Degree Days 14 20  
Month to date heating degree days 184 362  
Since 1 July heating degree days 719 820  
Growing Degree Days 2 (Base 50)    
Moisture  
Dew Point 45 °F    
Average Humidity 73    
Maximum Humidity 100    
Minimum Humidity 45    
Precipitation  
Precipitation 0.75 in 0.13 in 3.32 in (1951)
Month to date precipitation 3.88 3.00  
Year to date precipitation 46.75 52.27  
Snow  
Snow 0.00 in 0.00 in - ()
Month to date snowfall 0.0 0.0  
Since 1 July snowfall 0.0 0.0  
Snow Depth 0.00 in    
Sea Level Pressure  
Sea Level Pressure 29.84 in    
Wind  
Wind Speed 16 mph (SW)    
Max Wind Speed 37 mph    
Max Gust Speed 51 mph    
Visibility 7 miles    
Events Fog , Rain    
T = Trace of Precipitation, MM = Missing Value Source: NWS Daily Summary

Daily Weather History Graph

Daily Weather History Graph

Search for Another Location

Airport or City:

Trip Planner

Search our weather history database for the weather conditions in past years. The results will help you decide how hot, cold, wet, or windy it might be!

Date:

Astronomy

Dec. 20, 2012 Rise Set
Actual Time 6:47 AM CST 4:42 PM CST
Civil Twilight 6:19 AM CST 5:10 PM CST
Nautical Twilight 5:48 AM CST 5:41 PM CST
Astronomical Twilight 5:18 AM CST 6:11 PM CST
Moon 11:46 AM CST (12/20) No Moon Set
Length of Visible Light 10h 50m
Length of Day
9h 55m
First Quarter, 55% of the Moon is Illuminated
Dec 20
First Quarter
Dec 28
Full
Jan 4
Last Quarter
Jan 11
New
Jan 18
First Quarter

Hourly Weather History & Observations

Time (CST) Temp. Windchill Dew Point Humidity Pressure Visibility Wind Dir Wind Speed Gust Speed Precip Events Conditions
12:53 AM 59.0 °F - 46.0 °F 62% 29.91 in 10.0 mi SE 18.4 mph 24.2 mph N/A   Mostly Cloudy
1:53 AM 60.1 °F - 48.0 °F 64% 29.89 in 10.0 mi SSE 13.8 mph 19.6 mph N/A   Overcast
2:53 AM 55.9 °F - 52.0 °F 87% 29.87 in 4.0 mi SSE 15.0 mph 24.2 mph 0.03 in Rain Light Rain
3:12 AM 55.4 °F - 51.8 °F 88% 29.86 in 6.0 mi SE 16.1 mph 24.2 mph 0.03 in Rain Light Rain
3:53 AM 55.9 °F - 51.1 °F 84% 29.82 in 8.0 mi SE 18.4 mph 27.6 mph 0.05 in   Overcast
4:16 AM 53.6 °F - 50.0 °F 88% 29.82 in 2.5 mi SE 13.8 mph 25.3 mph 0.10 in Rain Light Rain
4:19 AM 53.6 °F - 50.0 °F 88% 29.82 in 4.0 mi SE 15.0 mph 25.3 mph 0.11 in Rain Rain
4:26 AM 53.6 °F - 50.0 °F 88% 29.82 in 5.0 mi SE 10.4 mph 25.3 mph 0.13 in Rain Rain
4:39 AM 53.6 °F - 51.8 °F 94% 29.83 in 4.0 mi SSE 6.9 mph 17.3 mph 0.18 in Rain Light Rain
4:50 AM 53.6 °F - 51.8 °F 94% 29.81 in 7.0 mi SSE 11.5 mph 19.6 mph 0.19 in Rain Light Rain
4:53 AM 54.0 °F - 51.1 °F 90% 29.80 in 6.0 mi SE 13.8 mph 20.7 mph 0.19 in Rain Rain
5:05 AM 53.6 °F - 51.8 °F 94% 29.81 in 2.5 mi Variable 6.9 mph 23.0 mph 0.09 in Rain Light Rain
5:26 AM 53.6 °F - 51.8 °F 94% 29.81 in 5.0 mi SSE 13.8 mph 21.9 mph 0.13 in Rain Light Rain
5:53 AM 55.9 °F - 54.0 °F 93% 29.80 in 10.0 mi South 17.3 mph 24.2 mph 0.14 in   Overcast
6:14 AM 55.4 °F - 53.6 °F 94% 29.80 in 10.0 mi SSE 16.1 mph 24.2 mph N/A   Overcast
6:53 AM 55.9 °F - 55.0 °F 97% 29.77 in 8.0 mi SSE 15.0 mph 25.3 mph N/A   Overcast
7:53 AM 57.9 °F - 57.0 °F 97% 29.73 in 5.0 mi SSE 13.8 mph 26.5 mph 0.02 in   Overcast
8:53 AM 61.0 °F - 59.0 °F 93% 29.71 in 5.0 mi SSE 15.0 mph 23.0 mph 0.01 in   Overcast
9:14 AM 62.6 °F - 60.8 °F 94% 29.77 in 5.0 mi SW 21.9 mph 31.1 mph 0.02 in Rain Light Rain
9:16 AM 60.8 °F - 59.0 °F 94% 29.77 in 1.0 mi West 36.8 mph 50.6 mph 0.03 in Rain Heavy Rain
9:19 AM 55.4 °F - 53.6 °F 94% 29.79 in 0.5 mi West 31.1 mph 50.6 mph 0.09 in Fog , Rain Heavy Rain
9:34 AM 53.6 °F - 48.2 °F 82% 29.80 in 1.5 mi West 20.7 mph 34.5 mph 0.28 in Rain Heavy Rain
9:38 AM 53.6 °F - 48.2 °F 82% 29.79 in 6.0 mi West 18.4 mph 27.6 mph 0.29 in Rain Light Rain
9:53 AM 53.1 °F - 48.0 °F 83% 29.79 in 7.0 mi West 5.8 mph - 0.30 in Rain Light Rain
10:00 AM 53.6 °F - 48.2 °F 82% 29.79 in 7.0 mi West 5.8 mph - 0.01 in Rain Light Rain
10:53 AM 55.0 °F - 46.0 °F 72% 29.75 in 10.0 mi WSW 9.2 mph - 0.01 in   Overcast
11:53 AM 54.0 °F - 46.0 °F 75% 29.73 in 10.0 mi WSW 13.8 mph - 0.00 in   Overcast
12:53 PM 55.9 °F - 46.0 °F 69% 29.73 in 10.0 mi West 18.4 mph 28.8 mph N/A   Overcast
1:53 PM 55.9 °F - 39.9 °F 55% 29.77 in 10.0 mi West 19.6 mph 32.2 mph N/A   Scattered Clouds
2:53 PM 52.0 °F - 35.1 °F 53% 29.82 in 10.0 mi West 23.0 mph 34.5 mph N/A   Partly Cloudy
3:53 PM 48.9 °F - 32.0 °F 52% 29.87 in 10.0 mi West 23.0 mph 31.1 mph N/A   Scattered Clouds
4:53 PM 46.9 °F - 30.0 °F 52% 29.91 in 10.0 mi West 12.7 mph 20.7 mph N/A   Scattered Clouds
5:53 PM 46.0 °F 38.5 °F 28.9 °F 51% 29.96 in 10.0 mi West 19.6 mph 26.5 mph N/A   Clear
6:53 PM 45.0 °F 38.5 °F 28.9 °F 53% 30.00 in 10.0 mi West 13.8 mph 26.5 mph N/A   Scattered Clouds
7:53 PM 43.0 °F 36.4 °F 28.0 °F 56% 30.01 in 10.0 mi West 12.7 mph 24.2 mph N/A   Scattered Clouds
8:53 PM 43.0 °F 35.4 °F 28.0 °F 56% 30.02 in 10.0 mi West 16.1 mph 25.3 mph N/A   Overcast
9:53 PM 43.0 °F 34.2 °F 28.0 °F 56% 30.05 in 10.0 mi WNW 20.7 mph 29.9 mph N/A   Overcast
10:53 PM 41.0 °F 34.3 °F 21.9 °F 47% 30.07 in 10.0 mi WNW 11.5 mph 21.9 mph N/A   Scattered Clouds
11:53 PM 39.9 °F 31.8 °F 25.0 °F 55% 30.08 in 10.0 mi West 15.0 mph 27.6 mph N/A   Overcast